Regional Weather Roundup
Issued by NWS Wakefield, VA

Home | Current Version | Previous Version | Graphics & Text | Print | Product List | Glossary On
Versions: 1 2 3 4 5 6 7 8 9 10 11 12 13 14 15 16 17 18 19 20 21 22 23 24 25 26 27 28 29 30 31 32 33 34 35 36 37 38 39 40 41 42 43 44 45 46 47 48 49 50
499
ASUS41 KAKQ 260115
RWRAKQ

REGIONAL WEATHER ROUNDUP
NATIONAL WEATHER SERVICE WAKEFIELD VA
900 PM EDT MON JUL 25 2016

Note: "fair" indicates few or no clouds below 12,000 feet with no
significant weather and/or obstructions to visibility. * = Denotes
station may not report precipitation (e.g., rain,snow,etc.),
thunder or fog.

VAZ042-051-052>054-056-260200-
NORTHERN VIRGINIA

CITY           SKY/WX    TMP DP  RH WIND       PRES   REMARKS
WASH NATIONAL  MOCLDY    89  77  67 S7        29.88R HX 101
DULLES         MOCLDY    85  73  67 CALM      29.89R
FORT BELVOIR   FAIR      86  77  74 E2        29.88R HX  96
QUANTICO       NOT AVBL
FREDERICKSBRG*   N/A     87  77  73 SW3       29.88R HX  98
STAFFORD*      FAIR      85  75  73 CALM      29.93R
WARRENTON      FAIR      85  73  69 CALM      29.89S
CULPEPER*      FAIR      85  80  86 CALM      29.91R HX  99
MANASSAS*      CLEAR     90  75  62 CALM      29.88R HX 100
LEESBURG*      FAIR      81  77  89 W3        29.91R
WINCHESTER     FAIR      81  72  74 CALM      29.93R
FRONT ROYAL*   FAIR      81  72  74 CALM      29.92R
LURAY*         FAIR      79  79 100 CALM      29.95R
$$

VAZ048-049-060>072-079>083-260200-
CENTRAL AND SOUTH CENTRAL VIRGINIA

CITY           SKY/WX    TMP DP  RH WIND       PRES   REMARKS
RICHMOND       CLOUDY    85  75  72 S9        29.91R
CHESTERFIELD*  FAIR      86  66  51 S3        29.94R
PETERSBURG*    FAIR      84  77  79 CALM      29.94R
HANOVER        FAIR      90  72  55 S7        29.91S HX  97
TAPPAHANNOCK*  FAIR      87  74  64 S5        29.90S HX  95
QUINTON*       FAIR      85  79  80 CALM      29.91R HX  98
CHARLOTTSVILLE FAIR      89  73  59 SW6       29.92R HX  97
GORDONSVILLE*  FAIR      87  75  68 SW5       29.91R HX  96
ORANGE*          N/A     86  75  70 CALM      29.93R HX  95
LOUISA*        FAIR      90  79  70 SW3       29.91R HX 105
BUMPASS*       FAIR      84  78  80 SW3       29.90S HX  95
FARMVILLE*     FAIR      87  74  67 SW5       29.93S HX  95
CREWE*         FAIR      85  78  79 CALM      29.95R HX  98
FORT PICKETT*  FAIR      85  79  83 SW6       29.95S HX  97
CHASE CITY*    FAIR      85  79  83 CALM      29.96S HX  98
CLARKSVILLE*   FAIR      82  77  83 S3        29.95F
SOUTH HILL*    FAIR      83  77  81 S6        30.01S
LAWRENCEVILLE* FAIR      84  77  81 SW3       29.95R
EMPORIA*       FAIR      84  77  79 CALM      29.96S
$$

VAZ088>098-260200-
SOUTHEAST VIRGINIA

CITY           SKY/WX    TMP DP  RH WIND       PRES   REMARKS
NORFOLK        FAIR      90  72  55 S9        29.93R HX  97
VIRGINIA BEACH MOCLDY    92  73  53 S10       29.93R HX 100
NORFOLK NAVAL  CLOUDY    90  73  57 SW8       29.94R HX  98
WEST POINT*    FAIR      87  76  71 S3        29.92R HX  98
SALUDA*        FAIR      85  80  82 S5        29.91R HX  99
NEWPORT NEWS   FAIR      87  76  69 SW9       29.93R HX  97
LANGLEY AFB    FAIR      89  75  63 SW10      29.93R HX 100
FORT EUSTIS    FAIR      88  79  75 S5        29.91R HX 102
WILLIAMSBURG*  FAIR      90  79  70 S5        29.93R HX 105
HR EXEC AP*    FAIR      86  73  66 SW7       29.95S
FRANKLIN*      FAIR      85  76  73 S6        29.94S HX  95
US460-WAKEFLD  FAIR      86  76  71 SW5       29.93R HX  96
$$

VAZ020-022-025-037-045-260200-
WEST CENTRAL AND SOUTHWEST VIRGINIA

CITY           SKY/WX    TMP DP  RH WIND       PRES   REMARKS
STAUNTON*      FAIR      83  73  72 W3        29.99R
WAYNESBORO*    FAIR      84  70  63 SW6       30.00R
HOT SPRINGS VA FAIR      75  70  83 W8        30.17R
LYNCHBURG      FAIR      82  74  76 CALM      29.99R
DANVILLE       FAIR      82  76  81 CALM      29.97R
SOUTH BOSTON*  FAIR      84  78  81 S3        29.95F HX  95
MARTINSVILLE   FAIR      78  75  88 CALM      30.01F
ROANOKE        MOCLDY    80  75  84 N6        30.02R
BLACKSBURG     MOCLDY    79  73  82 CALM      30.11R
DUBLIN*        MOCLDY    76  71  84 NW5       30.10R THUNDER
MARION*        CLOUDY    80  72  77 CALM      30.13R
HILLSVILLE*    MOCLDY    76  70  81 SW3       30.10F
RICHLANDS*     FAIR      77  71  82 SW6       30.14R
WISE*          CLOUDY    72  70  94 SW3       30.15S
ABINGDON*      MOCLDY    82  69  65 NW3       30.10R
$$

MDZ021>025-VAZ099-100-260200-
SOUTHERN MARYLAND AND THE DELMARVA PENINSULA

CITY           SKY/WX    TMP DP  RH WIND       PRES   REMARKS
PATUXENT RIVER MOCLDY    88  73  61 S6        29.89R HX  95
BAY BRIDGE APT CLOUDY    90  73  58 SW8       29.87R HX  98
LEONARDTOWN    CLOUDY    88  73  62 CALM      29.91R HX  96
DOVER          MOCLDY    86  77  75 N23G30    29.90R HX  97
GEORGETOWN     CLOUDY    85  76  74 SW9       29.89R
EASTON         NOT AVBL
CAMBRIDGE      CLOUDY    84  73  70 S3        29.89R
SALISBURY      MOCLDY    84  76  76 SW7       29.90R
OCEAN CITY     CLOUDY    85  77  77 SW8       29.91R HX  95
WALLOPS ISLAND FAIR      82  75  79 S9        29.91R
ACCOMACK*      FAIR      84  77  79 CALM      29.91S
$$

NCZ012>017-030>032-260200-
NORTH CENTRAL AND EASTERN NORTH CAROLINA

CITY           SKY/WX    TMP DP  RH WIND       PRES   REMARKS
ROANOKE RAPIDS FAIR      82  75  78 S6        29.95F
RALEIGH        MOCLDY    88  73  61 SW13      29.98R HX  95
ELIZABETH CITY CLOUDY    86  77  74 S13       29.96R HX  97
AHOSKIE*       CLEAR     82  77  83 S3        29.96S
EDENTON*       CLOUDY    87  75  66 SW13      29.98R HX  97
CURRITUCK*     CLOUDY    87  78  74 S3        29.96R HX  98
KILL DEVIL HLS CLOUDY    85  74  70 SW9       29.97R
MANTEO           N/A     85  78  79 SW15      29.99R HX  95
CAPE HATTERAS  PTCLDY    83  76  79 SW13G23   30.01S
TARBORO*       FAIR      85  77  75 CALM      29.98R HX  96
GOLDSBORO      CLEAR     86  79  79 S7        29.98R HX 100
WASHINGTON     NOT AVBL
GREENVILLE     CLOUDY    86  77  74 S10       30.00R HX  97
NEW BERN       CLEAR     82  74  76 S9        30.02R
WILMINGTON     CLEAR     83  75  77 SW10      30.02R
$$

VAZ048-260200-
ELSEWHERE

CITY           SKY/WX    TMP DP  RH WIND       PRES   REMARKS
HARRISBURG PA  CLOUDY    75  73  93 VRB5      29.91S
BALTIMORE      CLOUDY    88  70  55 W7        29.88R
ANNAPOLIS      CLOUDY    89  72  56 W5        29.87R HX  96
ANDREWS AFB    FAIR      87  73  63 SW6       29.88R
PHILADELPHIA   CLOUDY    75  72  90 S9        29.92F
GREENSBORO     CLOUDY    86  70  58 S9        30.00R
ROCKY MOUNT    CLOUDY    84  76  76 S5        29.97R
$$

VAZ100-260200-
MARINE

STATION/POSITION TIME  TEMP    WIND        PRES    WAVE   SWELL
                       AIR SEA DIR/SP/G            HT/PER HT/PER
                 (UTC) (F)     (DEG/KT/KT) (MB)    (FT/S) (FT/S)
BRANDYWINE LGT   0000   88                   N/A
CAPE MAY NJ      0000   84 74                N/A
LEWES DE         0000   89 72                N/A
OCEAN-CITY-INLET 0000   76 76                N/A
WACHAPREAGUE VA  0000   85                   N/A
THOMAS POINT MD  0100   87 84  210/  9/  9 1013.0R
GOOSES REEF MD   0000   89 85  220/  4/  8 1012.7R   1
COVE POINT MD    0000   91                   N/A
SOLOMONS ISLAND  0000   90 85                N/A
BISHOPS HEAD MD  0000   90                   N/A
PINEY POINT MD   0000          220/  6/  6   N/A
POTOMAC MD       0000   89 86  220/  8/ 10 1010.7R   1/ 2
CAMBRIDGE MD     0000   91 87                N/A
LEWISETTA VA     0000   90 87                N/A
RAPPAHANNOCK LGT 0000          180/ 11/ 13   N/A
STINGRAY PT      0000   89 87  140/  8/  8 1013.0R   0
YORK RVR RNG VA  0000   89                   N/A
YORKTOWN VA      0000   90 85                N/A
JAMESTOWN VA     0000   90 89  180/  6/  8   N/A     0
DOMINION TERM VA 0000   89                   N/A
KIPTOPEKE VA     0000      83                N/A
CHES BAY BRIDGE  0000   90 81                N/A
CAPE HENRY VA    0000   90                   N/A
WILLOUBY STN VA  0000   90                   N/A
CAPE HENRY BUOY  0012      78                N/A     2/ 8
1ST LANDING BUOY 0000   87 79  220/ 10/ 10 1012.7R
CAPE CHARLES BUO 0026      73                N/A     2/ 8
OFFSHORE WE BUOY 0021      82                N/A     3/ 4
64NM E OF VA BCH 0050   83 80  210/ 17/ 21 1014.3R   4/ 5
DUCK PIER NC     0000   87 64                N/A
44100 DUCK FRF   0005      75                N/A     3/ 4
44056 DUCK FRF   0011      73                N/A     2/ 8
OREGON INLET NC  0000   85 86                N/A
HATTERAS NC      0000   83 83                N/A
DIAMOND SHLS NC  0050   85 85  220/ 17/ 21 1016.2    4/ 5   2/ 8
CAPE LOOKOUT NC  0000   84     220/ 10/ 15 1016.1R
$$




USA.gov is the U.S. government's official web portal to all federal, state and local government web resources and services.